#timestamp,LO_Frequency,Hit,StdDev 
1599166835.4,286046998.6,N
1599166855.2,286047002.3,P
1599166875.1,286047000.0,N
1599166876.0,286047000.0,N
1599166895.8,286047000.1,N
1599166915.6,286047002.2,N
1599166935.5,286047003.8,N
1599166955.3,286047004.2,N
1599166975.1,286047004.2,N
1599166995.9,286047003.0,N
1599167015.7,286047004.2,N
1599167035.6,286047001.9,N
1599167055.4,286047002.3,N
1599167075.2,286047001.8,N
1599167095.1,286047003.4,N
1599167096.0,286047003.4,N
1599167115.8,286047006.0,Y
1599167135.7,286047002.8,P
1599167155.5,286047001.1,P
1599167175.3,286047001.1,N
1599167195.2,286046998.4,N
1599167215.9,286047001.1,N
1599167235.7,286047000.0,N
1599167255.6,286047001.9,N
1599167275.4,286047004.2,Y
1599167295.3,286047004.1,P
1599167315.1,286047005.9,P
1599167316.0,286047005.9,N
1599167335.8,286047004.8,N
1599167355.7,286047007.6,Y
1599167375.5,286047001.9,P
1599167395.4,286047004.3,P
1599167415.2,286047002.9,N
1599167435.0,286047004.9,Y
1599167435.9,286047004.9,P
1599167455.8,286047001.6,N
1599167475.6,286047001.4,N
1599167495.4,286047001.8,N
1599167515.3,286047000.1,N
1599167535.1,286046998.5,N
1599167555.9,286046996.5,N
1599167575.7,286046999.7,N
1599167595.5,286047000.1,N
1599167615.4,286047004.3,N
1599167635.2,286047004.0,N
1599167655.1,286047003.7,N
1599167656.0,286047003.7,N
1599167675.8,286047004.3,N
1599167695.6,286047004.0,N
1599167715.5,286047001.6,N
1599167735.3,286047005.2,N
1599167755.2,286047004.5,N
1599167775.9,286047004.5,N
1599167795.7,286047006.6,N
1599167815.6,286047008.5,Y
1599167835.4,286047006.7,P
1599167855.2,286047004.7,N
1599167875.1,286047007.4,P
1599167876.0,286047007.4,Y
1599167895.8,286046994.9,P
1599167915.7,286046995.9,N
1599167935.5,286046993.5,N
1599167955.3,286046994.6,N
1599167975.2,286046994.5,N
1599167995.0,286046993.3,N
1599167995.9,286046993.3,N
1599168015.8,286046995.6,N
1599168035.6,286046996.3,N
1599168055.4,286046996.1,N
1599168075.3,286046995.3,N
1599168095.1,286046997.2,N
1599168115.8,286047000.8,N
1599168135.7,286047002.7,N
1599168155.5,286047002.2,N
1599168175.4,286047003.1,N
1599168195.2,286047007.2,N
1599168215.0,286047007.4,N
1599168215.9,286047007.4,N
1599168235.8,286047004.5,N
1599168255.7,286047007.2,N
1599168275.5,286047004.7,N
1599168295.3,286047004.9,N
1599168315.2,286047003.1,N
1599168335.9,286047002.2,N
1599168355.7,286047001.9,N
1599168375.6,286047001.9,N
1599168395.4,286046999.9,N
1599168415.3,286047002.4,N
1599168435.1,286047002.5,N
1599168436.0,286047002.5,N
1599168455.8,286047002.9,N
1599168475.7,286047005.6,N
1599168495.5,286047005.0,N
1599168515.3,286047010.4,N
1599168535.2,286047011.3,N
1599168555.0,286047011.4,N
1599168555.9,286047011.4,N
1599168575.8,286047013.6,Y
1599168595.6,286047010.8,P
1599168615.4,286047007.7,N
1599168635.3,286047009.6,P
1599168655.1,286047010.2,Y
1599168675.9,286047001.3,P
1599168695.7,286047005.2,N
1599168715.5,286047004.4,N
1599168735.4,286047002.8,N
1599168755.2,286046998.8,N
1599168775.0,286046996.9,N
1599168775.9,286046996.9,N
1599168795.8,286046996.5,N
1599168815.6,286046998.2,N
1599168835.5,286047000.8,N
1599168855.3,286047001.0,N
1599168875.1,286047001.0,N
1599168895.9,286047001.7,N
1599168915.7,286047003.4,N
1599168935.5,286047002.9,N
1599168955.4,286047004.7,N
1599168975.2,286047006.3,N
1599168995.1,286047010.2,Y
1599168996.0,286047010.2,P
1599169015.8,286047007.7,N
1599169035.6,286047010.0,N
1599169055.5,286047013.1,Y
1599169075.3,286047006.4,P
1599169095.2,286047004.5,P
1599169115.9,286047006.3,P
1599169135.7,286047007.6,Y
1599169155.6,286047001.4,P
1599169175.4,286047005.5,N
1599169195.2,286047007.0,P
1599169215.1,286047001.9,N
1599169216.0,286047001.9,N
1599169235.8,286047002.8,N
1599169255.7,286046998.3,N
1599169275.5,286046997.2,N
1599169295.3,286046998.7,N
1599169315.2,286046995.4,N
1599169335.0,286046994.0,N
1599169335.9,286046994.0,N
1599169355.8,286046993.5,N
1599169375.6,286046991.9,N
1599169395.4,286046992.8,N
1599169415.3,286046992.1,N
1599169435.1,286046991.7,N
1599169455.8,286046993.3,N
1599169475.7,286046995.2,N
1599169495.5,286046995.6,N
1599169515.4,286046997.2,N
1599169535.2,286046997.2,N
1599169555.0,286046995.1,N
1599169555.9,286046995.1,N
1599169575.8,286046997.1,N
1599169595.6,286046997.1,N
1599169615.4,286046998.7,N
1599169635.3,286046998.6,N
1599169655.1,286047003.6,N
1599169675.9,286046999.7,N
1599169695.7,286047005.9,N
1599169715.5,286047005.4,N
1599169735.4,286047004.5,N
1599169755.2,286047007.0,N
1599169775.0,286047007.3,N
1599169776.0,286047007.3,N
1599169795.8,286047010.4,N
1599169815.6,286047010.3,N
1599169835.5,286047010.5,N
1599169855.3,286047010.4,N
1599169875.1,286047010.5,N
1599169895.9,286047013.8,N
1599169915.7,286047016.8,N
1599169935.5,286047016.3,N
1599169955.4,286047016.1,N
1599169975.2,286047013.0,N
1599169995.1,286047013.8,N
1599169996.0,286047013.8,N
1599170015.8,286047018.8,N
1599170035.6,286047017.4,N
1599170055.5,286047017.5,N
1599170075.3,286047018.1,N
1599170095.2,286047021.5,N
1599170115.9,286047023.2,Y
1599170135.7,286047015.5,P
1599170155.6,286047012.7,P
1599170175.4,286047011.9,P
1599170195.2,286047010.7,Y
1599170215.1,286047000.6,P
1599170216.0,286047000.6,N
1599170235.8,286047002.2,N
1599170255.7,286046999.0,N
1599170275.5,286046993.4,N
1599170295.3,286046995.8,N
1599170315.2,286046991.3,N
1599170335.0,286046993.1,N
1599170335.9,286046993.1,N
1599170355.8,286046988.5,N
1599170375.6,286046987.4,N
1599170395.4,286046987.0,N
